Location: Wellington
(41.3000°S, 174.7830°E)
Time: 14:03:00
(UTC+13:00)

SPOT 1/Viking Rocket - Pass Details

Date: 24 January 2019
Orbit: 776 x 795 km, 98.5° (Epoch: 12 October)

Event Time Altitude Azimuth Distance (km) Brightness Sun altitude
Rises 23:01:34 0° 157° (SSE) 3,336 7.2 -20.1°
Reaches altitude 10° 23:04:10 10° 147° (SSE) 2,398 6.3 -20.4°
Maximum altitude 23:08:54 32° 84° (E) 1,347 4.4 -20.9°
Enters shadow 23:09:00 32° 82° (E) 1,347 4.4 -20.9°
